Regional Weather Roundup
Issued by NWS

Home | Current Version | Previous Version | Text Only | Print | Product List | Glossary Off
Versions: 1 2 3 4 5 6 7 8 9 10 11 12 13 14 15 16 17 18 19 20 21 22 23 24 25 26 27 28 29 30 31 32 33 34 35 36 37 38 39 40 41 42 43 44 45 46 47 48 49 50

000
ASUS45 KABQ 300310
RWRNM
NEW MEXICO REGIONAL WEATHER ROUNDUP
NATIONAL WEATHER SERVICE ALBUQUERQUE NM
900 PM MDT FRI MAY 29 2015

NOTE: "FAIR" MEANS FEW OR NO CLOUDS BELOW 12,000 FEET AGL WITH NO
       SIGNIFICANT WEATHER OR OBSTRUCTIONS TO VISION.

      THIS PRODUCT IS RELEASED AS TWO VERSIONS.  ONE VERSION NEAR
      THE TOP OF THE HOUR CONTAINING PRELIMINARY DATA FROM ALBUQUERQUE
      AND OTHER STATIONS.  A FINAL VERSION WITH ADDITIONAL DATA IS
      ISSUED ABOUT 10 MINUTES AFTER THE HOUR.

NMZ501-503-504-510>518-300400-
NORTHWEST PLATEAU/NORTHCENTRAL MOUNTAINS

CITY           SKY/WX    TMP DP  RH WIND       PRES   REMARKS
FARMINGTON     CLEAR     65  27  23 NW6       30.13R
LOS ALAMOS     PTCLDY    65  14  14 W10       30.25R
SANTA FE       PTCLDY    64  17  16 N3        30.17R
TAOS           CLEAR     55  27  33 N9        30.24R
ANGEL FIRE     MOCLDY    50  40  68 E15       30.35R

$$
NMZ402-403-502-505>509-300400-
WESTCENTRAL MOUNTAINS/SOUTHWEST MOUNTAINS

CITY           SKY/WX    TMP DP  RH WIND       PRES   REMARKS
GALLUP         PTCLDY    66  29  24 N6        30.22R
GRANTS         PTCLDY    61  30  30 NW7       30.22S
SILVER CITY      N/A     72  16  12 W7        30.11R

$$
NMZ407-409-411-412-300400-
SOUTHERN DESERTS

CITY           SKY/WX    TMP DP  RH WIND       PRES   REMARKS
LORDSBURG      FAIR      75  19  12 W5        30.00S
DEMING         CLEAR     79  21  11 W7        30.00R
LAS CRUCES     CLEAR     77  20  11 W9        30.01S
HOLLOMAN AFB   CLEAR     83  19   9 CALM      29.96R
ALAMOGORDO     CLEAR     77  21  12 CALM      29.98R
T OR C         MOCLDY    78  24  13 NE8       30.02R

$$
NMZ519>523-300400-
CENTRAL VALLEYS/CENTRAL HIGHLANDS

CITY           SKY/WX    TMP DP  RH WIND       PRES   REMARKS
ALBUQUERQUE    PTCLDY    75  32  20 N6        30.12R
DOUBLE EAGLE   PTCLDY    57  39  51 NW7       30.16R
MORIARTY ARPT  FAIR      64  32  30 W8        30.19R
CLINES CORNERS PTCLDY    60  32  34 NW6       30.22R
BELEN          FAIR      66  34  30 N7        30.12R
SOCORRO        FAIR      73  32  22 NW12      30.08R

$$
NMZ524>526-539-540-300400-
SOUTHCENTRAL MOUNTAINS

CITY           SKY/WX    TMP DP  RH WIND       PRES   REMARKS
RUIDOSO        PTCLDY    63  32  31 NE5       30.24R

$$
NMZ527>531-300400-
NORTHEAST HIGHLANDS/NORTHEAST PLAINS

CITY           SKY/WX    TMP DP  RH WIND       PRES   REMARKS
LAS VEGAS      MOCLDY    54  46  74 N10       30.28R
RATON          PTCLDY    50  43  77 NE17      30.27R
CLAYTON        HVY RAIN  59  54  83 W10       30.23R

$$
NMZ532>537-300400-
EASTCENTRAL PLAINS

CITY           SKY/WX    TMP DP  RH WIND       PRES   REMARKS
TUCUMCARI      CLOUDY    60  55  83 CALM      30.12R
CANNON AFB     CLOUDY    59  52  78 E6        30.09F
CLOVIS AIRPORT CLOUDY    59  54  82 E18G32    30.06F

$$
NMZ028-029-538-300400-
SOUTHEAST PLAINS

CITY           SKY/WX    TMP DP  RH WIND       PRES   REMARKS
ROSWELL        PTCLDY    76  47  35 E18G25    29.99R
ARTESIA        CLEAR     81  52  36 SE8       30.00R
CARLSBAD       CLEAR     77  54  44 SE8       29.95R
HOBBS          MOCLDY    72  61  68 E8        30.05R THUNDER


$$



USA.gov is the U.S. government's official web portal to all federal, state and local government web resources and services.